Location: Raleigh
(35.7720°N, 78.6390°W)
Time: 06:52:05
(UTC-04:00)

FO-29 - Visible Passes

Search period start: 24 July 2017 00:00
Search period end: 03 August 2017 00:00
Orbit: 801 x 1321 km, 98.6° (Epoch: 23 July)

Date Brightness Start Highest point End Pass type
(mag) Time Alt. Az. Time Alt. Az. Time Alt. Az.
24 Jul 11.3 21:16:18 10° ENE 21:18:29 12° E 21:20:14 10° ESE visible
24 Jul 9.6 22:57:30 10° NNE 23:04:36 90° NNW 23:06:43 47° SSW visible
25 Jul 12.0 00:44:54 10° NNW 00:48:25 15° WNW 00:51:45 10° W visible
25 Jul 10.3 22:03:12 10° NNE 22:09:19 33° E 22:10:51 30° ESE visible
25 Jul 10.9 23:48:01 10° N 23:54:20 37° WNW 23:57:19 24° WSW visible
26 Jul 11.4 21:13:07 10° E 21:13:25 10° E 21:13:43 10° E visible
26 Jul 9.5 22:52:40 10° NNE 22:59:39 84° ESE 23:01:28 51° S visible
27 Jul 12.0 00:39:51 10° NNW 00:43:33 15° WNW 00:47:01 10° W visible
27 Jul 10.3 21:58:29 10° NE 22:04:18 30° E 22:05:35 28° ESE visible
27 Jul 10.7 23:43:07 10° N 23:49:25 39° WNW 23:52:03 27° WSW visible
28 Jul 9.5 22:47:50 10° NNE 22:54:40 79° ESE 22:56:11 54° S visible
29 Jul 11.9 00:34:50 10° NNW 00:38:40 16° WNW 00:42:16 10° W visible
29 Jul 10.4 21:53:45 10° NE 21:59:16 27° E 22:00:19 26° ESE visible
29 Jul 10.6 23:38:12 10° N 23:44:29 41° WNW 23:46:47 30° WSW visible
30 Jul 9.4 22:43:00 10° NNE 22:49:41 73° ESE 22:50:54 57° SSE visible
31 Jul 11.9 00:29:49 10° NNW 00:33:47 17° WNW 00:37:23 10° W visible
31 Jul 10.5 21:49:03 10° NE 21:54:13 25° E 21:55:01 24° ESE visible
31 Jul 10.4 23:33:18 10° N 23:39:32 44° WNW 23:41:29 34° WSW visible
01 Aug 9.4 22:38:09 10° NNE 22:44:41 67° E 22:45:36 59° SSE visible
02 Aug 11.8 00:24:47 10° NNW 00:28:52 18° WNW 00:32:05 12° W visible
02 Aug 10.6 21:44:22 10° NE 21:49:10 22° E 21:49:42 22° E visible
02 Aug 10.3 23:28:23 10° N 23:34:35 47° WNW 23:36:11 38° WSW visible
